Location: ?????????
(38.0736°N, 23.2119°E)
Time: 19:50:30
(UTC+00:00)

CSL-04 Rocket - Pass Details

Date: 18 April 2024
Orbit: 805 x 860 km, 98.8° (Epoch: 27 May)

Event Time Altitude Azimuth Distance (km) Brightness Sun altitude
Exits shadow 18:31:24 11° 168° (SSE) 2,377 5.7 -16.3°
Maximum altitude 18:36:40 84° 256° (WSW) 859 3.7 -17.2°
Drops below altitude 10° 18:42:10 10° 345° (NNW) 2,466 6.8 -18.2°
Sets 18:44:31 0° 346° (NNW) 3,396 7.5 -18.5°
